Satellite: FENGYUN 1D
Catalog number: 27431
Epoch time:      103114.84608385
Element set:     268 
Inclination:       98.7543 deg
RA of node:       162.0394 deg
Eccentricity:    0.0014370
Arg of perigee:   301.9121 deg
Mean anomaly:      58.0651 deg
Mean motion:   14.09182010 rev/day
Decay rate:   -1.7500E-006 rev/day^2
Epoch rev:            4856
Checksum:              280

Satellite: NOAA 17
Catalog number: 27453
Epoch time:      103114.45090429
Element set:     386 
Inclination:       98.7444 deg
RA of node:       185.2828 deg
Eccentricity:    0.0012147
Arg of perigee:   164.6916 deg
Mean anomaly:     195.4633 deg
Mean motion:   14.23333706 rev/day
Decay rate:    2.1700E-006 rev/day^2
Epoch rev:            4319
Checksum:              310

Satellite: HOT BIRD 6
Catalog number: 27499
Epoch time:      103104.14052927
Element set:     73 
Inclination:        0.0313 deg
RA of node:       303.0505 deg
Eccentricity:    0.0012771
Arg of perigee:   138.1476 deg
Mean anomaly:     184.1937 deg
Mean motion:    1.00273600 rev/day
Decay rate:    9.9999E-009 rev/day^2
Epoch rev:             237
Checksum:              282

Satellite: RUBIN 2
Catalog number: 27605
Epoch time:      103115.16624663
Element set:     116 
Inclination:       64.5579 deg
RA of node:       358.0354 deg
Eccentricity:    0.0034969
Arg of perigee:    83.1673 deg
Mean anomaly:     277.3408 deg
Mean motion:   14.71471873 rev/day
Decay rate:    4.8199E-006 rev/day^2
Epoch rev:            1846
Checksum:              335

Frase del giorno:
The light at the end of the tunnel may be the headlight of a train.
73 Ciao Renzo.

li, venerd¨ 25 aprile 2003  12.06 (+ 2.00) CET

  /___/____/
 /   /    /
     ||
     || I6KZR  Fermo, Italy
     || BBS    I6KZR@IK6WID.#AP.IMAR.ITA.EU
     || e_mail i6kzr@i6kzr.it
     || web http://www.i6kzr.it
     || TCPip: 44.134.243.003

Messaggio inviato con Sally V3.2.124 software packet per Windows 32bit.

<TO="I6KZR@IK6WID.#AP.IMAR.ITA.EU" TITLE="Old Istantrak Keplerians #115" CONTENT="">


Read previous mail | Read next mail


 18.09.2025 17:46:42lGo back Go up